Regional Weather Roundup
Issued by NWS

Home | Current Version | Previous Version | Graphics & Text | Print | Product List | Glossary Off
Versions: 1 2 3 4 5 6 7 8 9 10 11 12 13 14 15 16 17 18 19 20 21 22 23 24 25 26 27 28 29 30 31 32 33 34 35 36 37 38 39 40 41 42 43 44 45 46 47 48 49 50

000
ASUS43 KMKX 200859
RWRWI

WISCONSIN REGIONAL WEATHER ROUNDUP
NATIONAL WEATHER SERVICE MILWAUKEE/SULLIVAN WI
400 AM CDT FRI APR 20 2018

NOTE: "FAIR" INDICATES FEW OR NO CLOUDS BELOW 12,000 FEET WITH NO
SIGNIFICANT WEATHER AND/OR OBSTRUCTIONS TO VISIBILITY.

WIZ001-002-006>008-014>016-023>028-201000-
NORTHWEST WISCONSIN

CITY           SKY/WX    TMP DP  RH WIND       PRES   REMARKS
SUPERIOR ARPT  FAIR      33  19  56 SW7       30.43R WCI  26
ASHLAND        FAIR      36  17  46 SW8       30.42R WCI  30
HAYWARD        FAIR      22  18  85 CALM      30.45R
SIREN          FAIR      28  22  79 CALM      30.46R
CUMBERLAND     FAIR      25  18  74 S3        30.45S
RICE LAKE      FAIR      25  24  97 CALM      30.48R
CHETEK         FAIR      24  21  89 CALM      30.47R
LADYSMITH      FAIR      25  19  77 CALM      30.47R
EAU CLAIRE     NOT AVBL
MENOMONIE      FAIR      29  24  81 CALM      30.47S
NEW RICHMOND   FAIR      26  22  87 CALM      30.47S
OSCEOLA        FAIR      26  22  82 CALM      30.50S
$$

WIZ003>005-009-010-017-018-201000-
NORTH CENTRAL WISCONSIN

CITY           SKY/WX    TMP DP  RH WIND       PRES   REMARKS
MANITOWISH WTR FAIR      17  13  84 CALM      30.42R
ARBOR VITAE    FAIR      23  14  68 CALM      30.42R
WOODRUFF       FAIR      23  14  68 CALM      30.42R
RHINELANDER    FAIR      21  11  65 CALM      30.43R
EAGLE RIVER    FAIR      19  14  80 CALM      30.42R
LAND O LAKES   FAIR      14  10  83 CALM      30.43R
PHILLIPS       FAIR      19  17  95 CALM      30.44R
TOMAHAWK       FAIR      17  12  82 CALM      30.44R
MEDFORD        FAIR      24  18  78 CALM      30.44R
MERRILL          N/A     20  15  82 CALM      30.45R
$$

WIZ029-030-035-036-043>047-201000-
CENTRAL WISCONSIN

CITY           SKY/WX    TMP DP  RH WIND       PRES   REMARKS
WAUSAU         FAIR      26  22  84 CALM      30.43R
MOSINEE        FAIR      30  19  64 NW5       30.45R WCI  25
MARSHFIELD     FAIR      31  16  54 NW3       30.44R
STEVENS POINT  FAIR      20  18  89 CALM      30.46R
WAUPACA        FAIR      30  20  65 CALM      30.46R
WAUTOMA        FAIR      26  19  74 MISG        N/A
WISC RAPIDS    FAIR      24  17  74 CALM      30.47R
CAMP DOUGLAS   FAIR      22  20  92 CALM      30.47R
$$

WIZ011>013-019>022-031-037>040-048>050-201000-
NORTHEAST WISCONSIN

CITY           SKY/WX    TMP DP  RH WIND       PRES   REMARKS
ANTIGO         FAIR      20  17  88 CALM      30.44R
SHAWANO        FAIR      24  20  86 CALM      30.45R
OCONTO         FAIR      21  17  82 CALM      30.43R
STURGEON BAY   FAIR      31  16  54 CALM      30.44R
GREEN BAY      FAIR      24  20  84 W3        30.44R
MANITOWOC      FAIR      26  22  84 CALM      30.45R
APPLETON       FAIR      30  18  59 W7        30.42R WCI  23
CLINTONVILLE   FAIR      26  20  79 CALM      30.45R
OSHKOSH        FAIR      31  19  61 W5        30.45R WCI  26
$$

WIZ032>034-041-042-053>061-201000-
SOUTHWEST WISCONSIN

CITY           SKY/WX    TMP DP  RH WIND       PRES   REMARKS
LA CROSSE      FAIR      28  24  85 CALM      30.49R
SPARTA         FAIR      19  18  96 CALM      30.50R
VIROQUA        FAIR      32  24  71 NW3       30.46S
BOSCOBEL       FAIR      24  21  88 CALM      30.51R
PRAIRIE DU CHI FAIR      26  23  86 CALM      30.51R
PLATTEVILLE    FAIR      32  28  86 CALM      30.48R
$$

WIZ056-057-062-063-064-067-068-201000-
SOUTH CENTRAL WISCONSIN

CITY           SKY/WX    TMP DP  RH WIND       PRES   REMARKS
REEDSBURG      FAIR      24  24 100 CALM      30.48R
BARABOO/DELLS  FAIR      25  20  80 CALM      30.47R
LONE ROCK      FAIR      24  22  91 W3        30.50R
MINERAL POINT  FAIR      32  25  74 CALM      30.47R
MADISON        FAIR      24  21  88 CALM      30.47R
MIDDLETON      FAIR      27  24  87 CALM      30.47R
WATERTOWN      FAIR      23  22  95 CALM      30.46R
MONROE         FAIR      36  21  55 NW7       30.46R WCI  30
JANESVILLE     FAIR      28  28 100 CALM      30.47R
$$

WIZ051-052-058>065-066-070>072-201000-
SOUTHEAST WISCONSIN

CITY           SKY/WX    TMP DP  RH WIND       PRES   REMARKS
MILWAUKEE      FAIR      36  24  62 NW6       30.45R WCI  31
WAUKESHA       FAIR      32  23  69 W9        30.45S WCI  24
MILWAUKEE/TIMM FAIR      32  23  69 CALM      30.46R
RACINE         FAIR      35  24  64 W8        30.46R WCI  29
BURLINGTON     FAIR      36  21  55 W3        30.45R
KENOSHA        FAIR      33  23  66 W5        30.45R WCI  29
FOND DU LAC    FAIR      25  19  78 CALM      30.45R
SHEBOYGAN      FAIR      29  24  82 CALM      30.45R
WEST BEND      FAIR      28  27  93 CALM      30.44R
JUNEAU         FAIR      27  22  83 CALM      30.46R
$$

LSZ147-162-201000-
LAKE SUPERIOR

STATION/POSITION TIME  TEMP    WIND        PRES    WAVE
                       AIR SEA DIR/SP/G            HT/PER
                 (UTC) (F)     (DEG/KT/KT) (MB)    (FT/S)
DEVILS ISLAND    0800   42     230/ 12/ 13 1030.1R
SAXON HARBOR     0840   28      CALM  /  3 1029.5R
$$

LMZ867-665-643>646-201000-
LAKE MICHIGAN

STATION/POSITION TIME  TEMP    WIND        PRES    WAVE
                       AIR SEA DIR/SP/G            HT/PER
                 (UTC) (F)     (DEG/KT/KT) (MB)    (FT/S)
NORTHPORT PIER   0840   29                 1030.1R
KEWAUNEE LAKESHO 0824   28     300/  5/  6 1029.6
SHEBOYGAN LAKESH 0800   41     320/  3/  3 1030.9R
PORT WASHINGTON  0830   34      CALM  /  1 1031.8R
MILWAUKEE LAKESH 0830   38     310/  6/  8   N/A
KENOSHA   LAKESH 0800   39                 1030.5
$$

TC  - TEMPERATURE IN CELSIUS
VSB - VISIBILITY IN STATUTE MILES
WCI - WIND CHILL INDEX
HX  - HEAT INDEX





USA.gov is the U.S. government's official web portal to all federal, state and local government web resources and services.